Startpagina
METAR-TAF:

METAR-TAF

Vliegvelden :

Elsenborn

Bütgenbach, België

breedte: 50-28N, lengte: 006-11E, hoogte: 564 m

Actueel weer

Dit bericht is 31 minuten geleden gemaakt, om 21:55 UTC
Wind 9 kt uit het westnoordwesten
Temperatuur 9°C
Vochtigheid 100%
Druk 1010 hPa
Zicht: 2100 m
lichte motregen

METAR: EBLB 202155Z AUTO 30009KT 2100 -DZ OVC002/// 09/09 Q1010 AMB

Tijdstip: 00:26 (22:26 UTC)


TAF: ontbreekt

Waarnemingen en weersverwachtingen van meer dan 4000 vliegvelden (METAR en TAF).

De beschikbare stations zijn de gele en rode punten op de kaart.

Ga met uw muis naar het station om de naam te zien.

Klik dan om waarnemingen en weersverwachtingen te zien.

kaart wijzigen: klik op de groene knoppen met een zwart kruis om in te zoomen, op de groene knop met een streepje om uit te zoomen of op de groene pijlen voor aangrenzende kaarten.


METAR-TAF: